Theta_e
340 342 342 342 343 343 344 343 342 341 341 340 340 342 341 341 341 340 339 338 337 338 338 337 336 335 334 334 335 334 335 334 333 333 334 332 332 332 331 330 331 330 329 329 329 330 330 331 329 326 325 321
337 339 339 340 342 343 342 343 342 342 341 341 341 341 341 341 341 341 340 339 339 338 338 338 337 335 334 334 335 334 334 333 333 333 332 332 332 331 331 331 331 330 329 329 330 332 331 329 327 325 325 319
334 334 336 338 340 341 341 341 341 341 339 339 338 337 337 338 338 338 338 339 339 337 337 336 336 336 336 334 334 334 333 332 333 333 333 333 333 332 331 332 332 332 331 331 330 331 330 328 325 323 321 318
333 331 331 335 338 339 339 338 338 336 335 334 331 331 332 333 333 332 333 332 332 334 334 333 329 334 335 334 335 334 333 333 333 334 333 333 334 333 332 331 332 332 331 331 332 331 328 326 323 318 317 318
333 331 330 331 333 334 334 334 333 331 327 326 326 326 326 328 330 329 329 329 327 327 327 326 327 333 335 336 335 334 332 332 333 333 333 333 334 334 333 333 332 331 332 333 332 330 327 323 318 317 316 316
335 332 331 332 333 333 331 328 327 326 328 329 327 323 325 329 329 328 328 328 330 326 327 325 325 327 332 334 333 334 332 332 332 333 333 333 333 334 333 330 325 324 327 329 330 327 323 317 315 315 315 315
335 331 332 332 332 332 328 329 329 329 329 328 328 328 328 329 329 328 328 327 327 327 323 325 324 326 330 332 331 332 333 333 332 333 333 332 333 333 332 326 317 319 317 318 323 321 318 316 315 314 314 314
334 331 332 332 332 331 330 328 329 329 328 328 327 327 327 327 328 325 328 329 329 328 324 323 322 323 326 327 326 327 327 329 332 333 332 331 331 330 325 320 316 317 316 316 315 315 315 315 316 314 314 313
333 331 331 331 332 331 330 329 329 329 328 328 327 327 327 328 325 325 327 326 325 324 324 325 325 324 324 324 324 322 322 319 320 322 322 322 322 319 318 318 318 319 318 317 317 316 316 317 317 314 313 314
333 331 330 329 331 332 331 330 329 329 329 329 328 327 327 327 323 324 325 325 324 323 323 324 324 324 324 322 322 322 323 321 319 320 321 320 318 317 317 318 319 318 319 318 317 316 315 317 314 315 312 313
332 331 331 330 330 331 331 331 329 329 329 329 329 328 327 326 322 323 324 323 323 323 322 322 323 323 323 322 320 320 321 321 319 319 318 319 319 318 317 317 318 318 319 319 317 317 317 316 316 315 314 313
330 332 331 331 328 330 330 330 330 330 329 330 329 329 328 326 323 322 321 322 321 322 322 322 322 322 322 322 322 321 319 320 319 319 318 318 319 319 319 318 318 318 318 318 317 317 317 316 316 314 313 313
330 330 330 330 329 329 328 331 331 330 329 329 329 329 328 326 323 322 321 320 320 319 320 321 322 322 322 322 322 322 321 320 318 318 318 317 318 319 319 318 318 317 317 316 317 316 316 316 315 314 314 313
330 329 329 329 329 329 326 329 330 330 328 328 329 328 328 327 325 322 321 321 319 318 319 319 319 321 321 322 322 321 321 320 318 317 317 316 316 318 318 318 318 316 317 318 318 316 317 316 317 317 315 313
330 329 329 329 329 329 328 328 328 328 328 327 328 328 328 327 326 324 322 321 320 319 318 318 318 318 318 318 318 319 320 318 318 317 317 317 316 316 317 317 317 316 317 316 316 317 317 318 317 317 316 314
330 329 328 329 329 328 329 328 327 327 327 325 326 327 328 327 326 324 323 321 319 319 318 317 318 318 318 318 318 317 319 318 318 317 317 317 317 316 316 316 316 317 316 316 317 316 317 318 318 317 316 315
330 330 329 328 329 329 329 328 328 327 327 326 326 325 327 327 327 325 324 321 320 317 318 317 317 317 318 318 318 318 318 318 318 317 315 315 316 314 314 315 316 317 316 315 316 315 317 318 318 318 317 315
330 330 330 328 328 327 328 329 328 328 328 328 327 326 325 327 326 325 325 323 320 318 317 317 317 317 317 318 318 318 318 318 318 317 315 314 313 314 313 314 315 315 315 314 314 314 316 317 318 318 317 315
330 330 330 329 328 328 328 329 329 329 329 329 329 328 326 326 325 324 324 323 322 319 318 317 317 317 318 318 318 318 318 318 317 317 316 314 313 313 313 314 315 315 315 314 316 316 315 316 316 316 317 316
330 330 330 330 327 329 328 328 329 329 329 329 328 328 328 327 326 324 324 323 322 320 319 318 318 318 318 317 317 318 318 317 317 316 315 314 314 313 313 314 314 313 313 313 314 315 315 314 315 315 315 316
329 329 329 329 329 329 328 327 328 329 329 329 328 328 328 327 327 325 325 324 323 321 320 319 318 318 318 317 317 317 316 316 317 316 316 314 313 315 313 312 312 312 312 313 313 314 314 315 314 314 315 315
329 329 329 329 329 327 329 328 328 329 329 329 329 329 328 328 328 327 326 326 325 323 321 320 319 319 319 318 317 316 315 315 316 316 316 314 313 314 313 312 312 311 311 312 313 314 315 315 314 314 315 314
328 328 328 328 328 327 328 328 328 328 328 329 329 329 328 328 328 326 328 327 326 325 323 320 319 319 319 319 318 317 315 314 314 315 315 315 313 313 314 313 312 312 312 312 313 314 315 315 315 315 315 314
327 326 325 325 325 325 326 327 327 328 329 329 328 329 328 328 328 327 327 328 328 327 325 322 319 318 319 319 319 318 316 315 314 314 314 314 314 313 312 312 313 313 312 312 312 312 314 315 315 314 314 314
326 325 324 324 324 325 326 326 327 327 328 329 329 328 328 328 328 328 327 327 327 327 325 325 323 319 318 319 319 319 318 318 316 315 315 314 313 313 312 312 312 313 312 311 309 311 311 313 314 314 313 315
327 327 327 325 325 325 325 325 324 325 327 328 329 328 328 328 328 329 328 326 327 326 327 326 325 323 320 319 319 319 319 318 315 315 315 314 312 313 313 313 313 314 312 310 309 306 306 308 311 313 312 313
327 328 327 327 326 326 324 326 327 327 326 327 328 328 328 328 328 329 328 328 326 327 326 326 326 324 322 320 319 318 318 318 317 317 316 315 314 312 312 313 313 314 315 311 309 305 305 304 306 308 309 312
328 328 328 327 327 325 325 324 324 325 324 326 327 327 328 328 328 328 328 328 327 326 327 326 325 325 324 322 320 319 318 317 317 317 317 316 314 314 311 312 312 314 315 314 310 304 307 301 300 299 305 310
326 326 324 325 323 320 321 319 320 322 323 324 325 326 326 327 328 328 328 328 328 326 326 326 326 325 325 323 320 319 319 318 318 318 318 317 316 314 313 312 313 313 315 315 316 311 303 301 299 303 300 302
326 325 325 323 323 321 320 320 320 320 321 322 323 324 326 327 327 328 328 328 328 327 325 326 326 325 324 323 321 319 319 319 318 318 318 318 317 316 315 314 312 311 312 315 315 315 313 308 304 301 300 303
325 325 325 324 324 323 322 321 322 323 324 324 325 325 325 326 326 327 327 327 328 327 327 326 326 326 325 324 323 320 319 318 318 318 318 318 317 317 316 315 312 311 312 312 314 315 315 311 304 303 304 303
Wind_Speed
6 5 6 5 4 7 7 10 10 10 9 9 10 11 10 9 8 9 8 11 11 11 10 11 9 8 8 8 6 6 6 6 6 6 6 6 5 5 4 4 4 3 2 3 4 5 5 5 5 6 5 1
8 7 7 6 5 9 10 9 9 9 9 8 8 10 10 9 9 9 6 6 9 11 10 7 7 8 8 8 7 6 6 6 6 6 7 6 5 4 5 4 4 3 3 4 5 5 6 6 7 7 5 0
6 9 8 7 8 9 10 8 8 9 10 9 8 9 9 8 8 8 7 7 7 6 6 7 7 7 6 8 7 6 5 6 6 7 6 6 5 5 5 5 5 5 5 5 4 5 6 7 7 8 3 1
6 7 9 9 10 10 10 10 10 10 10 11 10 9 9 9 7 7 6 9 6 7 7 7 6 6 5 8 8 6 5 5 6 6 6 6 6 6 6 6 7 7 6 5 5 5 6 6 6 5 2 2
7 7 9 8 11 11 11 11 11 10 11 10 9 9 9 9 7 5 5 6 4 6 4 7 7 6 5 7 7 6 6 6 6 6 6 6 7 8 8 7 7 7 7 6 6 5 6 6 4 4 1 2
6 6 8 6 6 7 9 9 9 9 8 8 6 8 7 5 5 5 5 5 6 5 5 4 8 8 6 6 6 6 7 7 7 6 7 7 9 9 8 8 4 5 6 8 7 6 5 4 3 4 2 4
7 8 7 7 7 6 8 9 9 8 8 6 7 7 7 5 5 5 5 6 6 6 7 6 5 7 10 6 6 4 5 7 8 8 8 8 9 9 8 6 3 5 4 5 7 5 3 4 4 3 1 2
7 7 7 7 7 7 7 7 7 8 8 7 7 7 7 6 6 5 5 7 12 9 5 5 7 5 4 8 6 5 3 3 6 9 9 6 8 5 3 4 4 5 4 5 3 3 3 4 4 2 1 1
7 7 7 6 6 7 6 6 6 6 7 7 8 8 7 7 5 6 6 6 6 5 6 5 4 4 3 2 4 2 2 2 3 1 2 4 6 4 4 5 5 4 5 5 5 5 5 4 5 3 2 3
7 8 7 6 7 7 6 6 6 6 6 6 7 7 7 7 6 6 7 7 7 7 7 6 5 5 5 4 5 5 4 4 4 4 4 4 6 6 5 5 5 6 6 6 6 6 4 6 4 5 3 3
7 7 7 7 7 7 7 6 7 7 6 6 7 7 7 7 6 7 7 7 7 7 6 7 6 6 5 6 5 5 6 6 5 5 5 5 6 6 5 5 5 6 8 7 6 6 6 5 5 4 4 4
7 7 7 8 8 9 9 8 8 8 7 7 7 7 7 7 6 7 7 7 7 7 7 7 7 6 6 6 6 6 6 6 6 6 6 6 6 7 6 5 5 6 7 7 5 5 5 4 5 4 4 4
7 7 7 7 8 9 9 9 8 8 8 8 7 7 8 7 6 6 7 7 7 6 7 7 7 7 6 6 6 6 6 7 7 7 6 6 7 6 6 6 6 6 4 4 3 5 4 4 4 5 4 4
7 7 8 8 8 8 8 8 8 8 7 8 8 8 8 8 7 7 6 7 6 6 6 6 7 7 7 7 7 7 7 7 7 7 7 7 7 7 7 6 6 6 5 5 5 4 5 5 6 6 5 4
8 7 7 8 7 7 8 8 8 7 7 7 8 8 8 8 8 7 6 6 6 6 6 6 7 7 7 7 7 7 7 7 7 6 7 8 7 7 7 7 6 6 6 5 5 5 6 6 6 6 6 5
9 8 7 7 7 7 7 7 7 7 7 7 7 7 8 8 8 7 7 7 6 7 7 7 7 7 7 7 6 6 6 6 6 6 6 7 7 7 7 6 6 5 6 7 6 5 6 7 7 7 6 6
9 9 8 7 8 7 7 7 7 7 7 7 7 7 8 8 8 7 7 7 7 6 7 8 8 7 8 7 7 6 6 6 6 6 6 7 6 6 6 6 7 5 6 6 7 5 6 6 7 6 5 6
9 10 9 7 7 7 8 8 8 8 7 7 7 7 8 8 8 8 8 7 6 6 6 7 8 8 8 7 7 7 7 7 6 7 6 7 6 7 7 7 8 7 7 6 6 6 5 6 7 6 6 6
12 10 10 9 8 7 8 8 8 8 8 8 8 7 7 9 9 9 8 8 8 6 6 7 8 8 8 7 7 7 7 7 7 7 8 7 7 7 7 7 8 7 7 6 6 7 5 6 6 5 6 6
11 11 11 10 9 8 7 7 8 8 9 8 8 8 8 9 9 9 9 9 8 8 7 7 8 8 7 8 7 8 8 7 8 8 7 7 7 7 7 7 7 5 6 5 6 6 6 5 6 6 7 7
10 10 11 11 10 10 8 8 8 8 8 8 9 9 9 9 9 10 10 10 9 8 8 7 8 7 8 8 8 8 8 8 8 8 8 7 7 7 7 7 6 6 5 6 6 6 6 6 6 7 7 7
11 10 10 9 9 9 10 9 8 8 8 9 9 9 10 9 9 10 11 11 10 9 9 8 7 7 8 8 8 8 8 9 8 8 8 8 7 7 7 7 8 8 6 6 7 7 7 7 7 8 8 7
10 8 7 7 8 8 9 8 8 8 8 9 9 10 10 10 10 10 11 11 11 9 9 8 8 8 8 8 8 8 8 8 9 9 9 10 8 7 8 8 8 8 7 7 7 8 9 8 8 7 7 7
8 7 8 9 7 8 10 10 9 9 9 8 9 10 10 10 10 10 10 12 11 10 9 9 8 8 8 8 8 9 9 10 10 11 11 11 11 9 7 7 8 7 7 7 7 8 8 8 8 7 7 8
10 10 9 8 10 12 11 11 10 9 10 9 10 11 10 10 10 10 10 11 12 12 10 9 8 8 8 9 9 10 11 10 10 10 10 9 8 11 10 9 7 7 7 7 6 6 7 7 6 8 8 9
11 12 12 13 13 12 10 10 11 12 11 11 10 10 10 10 10 11 11 11 11 12 12 10 9 10 10 9 9 10 8 8 9 9 9 8 7 8 12 10 9 8 7 7 9 5 4 5 6 7 7 8
12 11 11 11 10 11 8 8 9 9 9 9 10 10 10 10 11 12 11 11 11 11 12 13 11 10 10 10 9 9 9 9 10 10 12 11 11 8 7 8 6 10 12 10 5 2 1 6 4 5 5 8
13 12 10 9 7 5 7 6 6 7 6 8 9 10 10 11 11 12 12 12 12 11 11 13 13 11 10 11 10 10 10 10 12 11 11 11 12 9 8 8 10 10 12 9 9 4 10 3 2 5 10 12
10 7 5 5 4 2 3 3 4 6 9 10 10 10 11 14 11 12 12 12 13 12 13 12 12 12 11 11 11 11 11 11 12 12 11 12 11 12 12 11 8 8 10 13 11 8 5 1 2 9 4 2
9 9 9 8 8 9 8 10 9 12 15 12 13 14 12 9 11 12 12 12 13 13 12 13 13 13 12 12 11 11 12 11 10 12 12 13 13 13 13 10 8 8 7 11 13 14 9 6 8 4 4 3
9 9 9 11 12 12 13 13 12 11 9 10 10 8 9 10 10 11 13 13 13 13 13 13 13 13 13 13 12 11 11 12 13 13 13 11 12 13 11 10 10 12 10 6 9 11 13 10 3 4 5 7
Wind_Direction
120 108 94 93 92 150 139 139 143 145 143 140 140 140 148 146 142 148 149 156 147 144 144 146 145 143 144 147 154 158 149 152 146 144 132 125 135 134 123 126 133 139 232 280 311 317 330 331 335 348 21 349
144 132 125 122 133 131 135 147 144 143 140 131 125 138 148 150 151 152 135 141 145 147 148 143 143 154 156 160 160 160 164 168 158 150 142 137 147 144 136 136 146 166 225 272 290 312 324 332 335 339 12 351
158 151 144 139 152 149 150 144 139 140 135 131 121 125 139 145 149 149 143 134 132 133 142 144 147 158 165 158 158 160 172 172 159 152 143 154 163 157 153 152 163 192 217 252 284 301 313 320 334 335 39 12
166 165 156 153 157 161 151 148 140 138 136 135 133 138 139 140 141 142 147 145 140 142 145 142 141 154 172 159 156 163 164 165 164 161 166 169 176 172 168 173 190 198 211 234 255 268 289 310 334 328 18 103
174 173 165 160 161 156 156 148 143 137 139 138 145 148 153 147 147 153 151 146 141 124 128 148 144 148 156 156 162 163 176 179 179 185 182 189 189 186 186 189 201 206 209 225 241 262 285 309 326 300 353 145
176 171 167 168 164 160 154 150 146 147 153 154 156 165 161 168 165 162 163 154 138 136 136 138 144 134 126 137 147 160 180 183 187 190 197 202 204 202 189 206 206 230 227 220 228 238 260 297 291 292 272 120
174 172 172 169 170 165 163 161 162 165 163 164 165 174 174 182 182 170 168 157 157 155 149 140 137 143 132 121 127 147 169 187 186 196 206 215 221 215 197 209 199 233 243 251 230 237 255 254 268 266 303 122
172 174 175 173 173 170 173 170 173 172 174 175 174 176 183 187 188 167 175 165 152 143 144 140 128 115 123 134 132 137 149 205 207 195 212 231 254 244 205 215 213 225 247 259 262 221 242 245 246 230 167 182
175 176 174 178 177 176 178 181 182 181 182 181 182 183 187 194 171 162 165 159 153 150 151 160 148 142 159 166 150 151 197 225 228 209 228 260 264 244 211 217 226 228 239 245 245 226 225 229 235 216 208 166
174 172 181 179 181 179 184 184 187 187 188 189 186 187 192 200 161 161 162 163 163 162 165 163 178 177 172 181 183 168 196 214 205 214 226 237 247 246 211 208 220 225 228 231 232 232 233 217 208 191 223 185
171 181 184 182 182 180 189 187 187 194 195 195 191 190 193 199 176 166 167 170 171 173 171 174 176 187 191 190 190 179 188 205 206 207 215 225 236 243 237 225 218 219 226 219 206 222 214 193 200 189 204 210
177 185 186 188 183 188 187 186 194 194 195 195 195 194 195 198 182 172 172 176 177 183 178 183 180 184 192 198 196 181 190 199 204 208 215 219 229 239 246 242 241 235 193 202 180 186 210 201 202 210 202 203
184 185 189 190 189 192 186 193 194 193 192 196 196 194 195 193 186 188 180 178 184 179 187 184 183 183 195 196 198 181 199 198 201 206 207 214 225 229 237 238 240 233 229 225 216 190 209 207 207 216 219 201
194 192 191 194 195 195 186 195 195 192 193 195 191 195 194 195 186 189 190 189 187 179 195 189 186 187 196 198 196 185 195 200 199 201 203 212 220 226 235 237 231 223 222 224 230 210 202 207 209 210 217 213
202 196 205 199 193 196 197 189 190 195 195 193 192 192 191 193 193 187 191 191 193 199 194 196 190 193 189 195 198 194 197 195 201 204 203 205 211 217 223 230 230 213 228 225 220 215 206 209 212 214 211 211
201 203 205 206 198 198 198 188 186 190 193 194 193 188 191 194 197 194 198 195 199 199 199 201 200 197 195 205 200 199 204 209 206 205 214 211 209 210 208 223 234 225 221 231 224 209 215 215 214 216 210 202
202 205 204 201 205 198 191 194 189 188 191 191 191 189 192 195 196 198 200 204 199 198 202 198 197 201 206 203 200 203 207 211 216 215 217 223 211 210 212 220 237 227 217 219 229 212 218 218 220 217 209 212
199 204 205 203 201 197 191 192 193 197 191 191 191 187 193 195 197 199 204 203 206 192 200 199 196 197 205 205 201 204 204 211 214 219 215 218 205 214 209 217 225 222 222 231 240 227 221 211 221 212 217 215
202 201 203 203 200 196 192 193 196 196 197 197 198 196 194 192 197 202 203 206 207 201 199 207 205 200 200 196 201 205 207 207 216 215 221 208 207 213 215 213 213 207 213 217 232 239 215 215 225 225 219 217
202 201 203 203 205 199 191 191 199 199 201 200 198 202 208 194 192 197 202 206 207 211 205 208 211 206 194 194 195 204 207 206 212 215 219 217 200 203 217 209 220 213 220 224 237 245 242 227 221 222 223 220
202 201 203 203 203 204 195 193 200 202 201 202 204 205 208 207 194 192 198 203 207 211 211 210 209 204 197 193 196 200 205 209 210 208 211 217 211 201 207 208 217 225 223 237 240 244 243 240 223 221 217 214
203 203 204 204 204 203 205 205 200 200 197 205 208 206 211 205 205 196 195 201 207 212 215 214 210 202 196 193 196 201 204 210 206 207 202 212 210 203 201 206 209 220 222 225 239 241 239 239 230 225 222 216
205 201 206 207 203 208 214 213 207 198 201 207 206 211 209 202 206 208 203 200 205 214 212 214 215 209 203 196 195 199 206 208 204 205 203 205 209 208 207 200 205 209 208 222 230 235 237 234 226 225 224 220
200 195 198 203 206 215 217 215 210 206 208 204 210 213 205 205 206 209 212 209 206 212 214 212 210 212 206 205 200 205 209 210 204 203 200 206 204 207 216 214 203 200 204 225 231 234 240 235 232 224 218 221
192 197 205 209 205 213 211 211 211 213 213 210 213 210 205 202 207 208 211 216 211 215 217 218 212 206 210 206 206 209 216 211 210 207 203 204 201 204 209 221 206 204 180 204 245 238 245 256 245 237 226 222
199 201 201 199 206 207 206 204 205 214 214 215 215 211 208 206 205 207 211 213 215 214 217 219 217 213 211 206 212 216 217 214 209 206 207 195 205 209 206 219 199 199 160 220 217 217 266 270 263 239 238 239
206 207 209 204 211 206 212 215 215 219 218 218 218 214 212 212 210 208 212 210 213 218 216 220 221 218 212 211 212 213 217 214 212 207 207 203 205 204 221 221 200 197 193 218 183 138 24 257 254 271 255 243
210 208 209 213 216 211 210 210 212 218 219 218 218 220 213 216 213 211 214 212 212 218 221 218 221 223 216 214 210 211 213 213 216 208 210 209 212 203 213 215 220 203 201 199 138 194 212 215 158 300 241 228
206 202 206 208 217 198 218 243 194 204 225 216 216 220 216 219 210 212 214 213 214 214 221 220 220 220 221 216 212 211 215 213 213 211 210 208 209 208 211 216 217 212 202 204 197 175 123 147 218 230 254 164
196 201 199 191 200 210 209 219 207 212 214 207 211 214 218 218 212 213 215 215 218 218 217 222 221 219 220 220 216 213 216 216 212 212 210 208 209 214 216 218 215 219 217 212 206 211 207 160 178 187 222 141
194 205 206 205 208 212 212 218 225 222 221 216 220 217 217 216 213 214 215 217 217 220 219 221 222 220 220 221 221 217 217 217 214 212 212 208 210 215 213 212 221 216 212 212 229 219 225 239 214 148 125 217